{"data":{"norad_id":49163,"epoch":"2026-05-25T03:05:20.537088Z","epoch_age_seconds":61106,"freshness":"FRESH","line1":"1 49163U 21082AK  26145.12870992  .00001282  00000+0  11752-3 0  9993","line2":"2 49163  70.0001  82.7568 0003091 270.7886  89.2919 14.97532957259051","mean_motion":14.97532957,"eccentricity":0.0003091,"inclination_deg":70.0001,"raan_deg":82.7568,"arg_perigee_deg":270.7886,"mean_anomaly_deg":89.2919,"bstar":0.00011752,"rev_number":25905,"period_min":96.158150861985,"perigee_km":572.37270699297,"apogee_km":576.67084064694,"semimajor_km":6952.65877382,"source":"CELESTRAK","updated_at":"2026-05-25T13:38:16.790783Z"}}